GFSWCAN_500_rhum_273.txt.gz
RH
10 11 12 13 13 13 13 12 11 10 9 8 8 7 7 8 10 10 10 9 9 12 15 14 11 34 89 100 100 72 29 57 96 81 57 51 44 40 39 37 39 43 38 31 28 25 19 22 19 21 26 24 21 18
11 12 14 15 16 17 18 18 22 23 23 22 26 38 39 24 7 8 10 10 9 9 10 13 12 10 29 87 100 100 64 28 64 95 75 59 49 42 36 39 36 39 38 36 33 31 34 30 24 20 24 26 22 19
20 17 16 16 17 18 22 34 43 48 60 59 64 76 100 100 92 24 9 8 9 9 8 9 12 15 12 30 97 99 100 43 32 69 94 74 60 47 38 33 35 34 36 38 30 28 27 24 21 19 24 26 24 20
39 36 30 25 28 38 47 54 88 93 86 88 92 100 100 100 100 100 38 24 9 10 10 10 10 12 12 20 36 100 100 100 48 32 63 84 74 56 46 37 30 26 24 27 33 32 31 28 25 22 26 26 25 22
89 67 52 46 44 53 60 69 83 96 87 97 95 90 98 100 100 100 99 71 34 16 10 11 11 16 15 16 24 48 100 100 100 54 35 54 80 78 58 47 35 27 23 22 22 32 31 28 24 21 21 26 26 23
96 100 100 99 72 61 65 76 84 99 98 97 100 100 96 97 100 100 100 86 60 37 11 9 12 30 18 24 26 33 85 100 100 100 67 35 43 80 85 58 44 38 29 24 22 23 25 24 21 20 22 26 27 24
100 100 100 100 100 100 100 93 98 94 70 65 97 100 98 97 100 100 81 66 78 74 36 14 8 9 23 28 26 37 76 98 100 100 97 78 44 50 67 71 63 47 40 32 27 23 21 20 20 22 24 27 28 25
50 54 69 95 100 100 100 100 100 78 53 80 100 100 100 100 100 99 86 65 89 97 72 30 10 10 10 23 36 39 60 89 100 100 100 92 89 59 39 42 70 64 49 41 34 32 27 26 24 25 28 31 33 27
90 89 80 77 89 97 100 55 41 41 71 86 100 100 100 99 58 63 86 94 95 100 86 59 32 15 18 27 53 82 73 96 100 99 100 100 90 94 51 35 43 71 64 50 46 38 35 34 32 34 32 33 31 27
58 58 56 57 98 99 79 21 29 61 77 83 100 100 94 100 81 100 100 100 100 63 71 63 62 22 16 24 83 97 75 95 100 92 100 100 100 57 61 58 34 50 74 70 52 45 42 37 36 35 35 35 42 31
65 56 56 77 84 99 89 36 35 61 60 69 93 82 97 91 100 90 100 99 87 57 41 41 44 30 16 17 84 100 98 100 100 96 100 97 74 48 49 58 57 36 55 72 70 57 49 44 38 37 37 40 46 50
66 63 64 62 66 89 96 98 42 45 47 63 64 60 58 100 100 100 90 64 48 53 42 49 55 46 27 66 100 100 100 100 100 86 99 86 43 50 53 49 53 56 39 58 73 72 66 57 53 53 45 40 39 35
88 91 96 99 65 83 97 100 100 38 29 71 100 99 79 100 100 84 42 39 48 47 33 39 35 39 42 66 100 100 100 83 97 93 84 55 44 52 53 55 54 61 54 38 64 79 80 82 76 75 78 64 46 45
91 99 100 100 73 89 98 100 100 65 41 54 77 79 100 91 65 48 63 77 64 47 46 83 66 38 50 96 100 100 98 100 79 79 63 29 43 45 47 53 69 70 60 52 47 58 82 86 84 81 80 86 81 80
97 100 93 73 68 79 99 100 98 100 58 46 67 64 61 66 50 76 100 72 48 59 91 86 87 90 100 99 100 100 100 97 99 61 27 26 39 46 53 59 66 70 66 56 50 38 58 62 63 71 79 87 100 100
99 98 78 73 96 94 97 100 100 100 88 68 67 50 55 74 98 100 61 66 69 91 90 92 100 100 100 100 100 100 98 89 56 45 28 25 33 50 55 60 72 78 66 60 51 35 28 36 48 66 77 79 86 95
100 65 78 86 85 100 100 100 100 95 68 55 47 51 78 100 100 78 88 99 100 90 55 97 96 100 99 100 100 100 99 90 42 34 39 58 71 76 73 67 65 70 71 60 46 31 23 27 39 49 59 69 75 83
88 99 100 100 98 94 91 78 49 40 65 91 100 100 94 89 87 98 99 100 100 70 68 72 100 96 100 96 93 74 97 51 43 40 34 32 31 34 40 46 53 58 59 56 58 46 26 24 28 42 57 70 72 74
100 100 100 100 100 100 97 100 100 97 98 67 51 51 55 54 65 81 91 98 100 80 80 93 96 97 100 99 99 89 54 42 54 52 47 46 44 41 36 31 28 36 43 47 52 60 53 29 26 33 47 68 71 65
63 59 75 89 96 91 95 98 88 97 99 98 96 99 100 100 93 95 100 92 71 66 82 91 93 84 82 92 100 100 70 76 55 41 36 34 31 32 26 23 22 20 20 29 40 51 67 59 36 31 50 68 72 68
100 100 100 100 100 90 87 100 100 100 100 98 87 97 100 100 100 100 66 37 58 54 72 100 69 100 100 99 100 100 96 67 49 38 31 27 28 28 25 22 29 20 16 18 29 44 52 64 57 50 56 72 77 78
100 100 100 100 99 100 99 100 100 90 100 100 100 100 100 100 66 43 77 98 100 77 61 66 63 47 86 100 96 91 80 90 63 41 38 37 27 24 20 23 39 40 46 54 51 55 64 78 78 77 77 78 83 90
62 68 80 92 94 91 100 100 99 100 100 100 100 60 82 100 100 100 94 100 84 97 100 100 98 100 98 100 99 83 80 90 75 58 42 38 35 26 24 24 60 92 82 93 91 82 85 85 89 90 92 95 95 96
61 54 58 54 49 97 100 100 100 100 100 100 100 100 99 100 100 100 99 100 100 96 80 98 95 100 100 100 93 62 52 52 54 51 47 60 90 81 78 66 100 100 100 100 100 100 99 100 100 100 100 100 100 100
62 65 60 56 57 81 99 99 92 76 72 71 74 99 100 100 100 100 100 100 100 100 100 99 86 75 71 72 73 74 70 64 58 50 48 66 82 100 97 96 100 100 100 100 100 100 100 100 100 100 100 100 100 100
47 55 66 87 96 100 99 69 52 38 31 28 24 23 36 62 85 100 100 100 100 100 100 81 69 68 79 71 63 70 77 56 42 59 74 68 75 100 100 99 100 100 100 100 100 100 100 100 100 100 100 100 100 100
81 72 70 89 89 88 65 49 42 27 22 22 19 18 24 28 30 37 44 52 72 100 94 71 100 100 100 89 77 88 93 94 93 99 100 99 89 83 90 95 98 98 98 100 100 100 100 98 100 100 99 100 100 100
81 88 75 83 70 53 43 35 24 9 8 8 11 17 20 38 54 57 64 62 60 58 61 66 74 86 82 75 92 100 100 100 100 100 100 100 100 100 100 100 100 100 100 99 100 100 100 99 100 100 100 100 100 100
68 85 86 81 76 67 63 52 15 9 9 9 8 12 28 46 54 59 64 73 69 68 72 77 80 92 99 98 95 100 100 100 100 100 100 100 100 100 100 100 100 100 100 100 100 100 100 100 100 100 98 97 95 95
57 75 79 86 89 82 68 56 33 17 16 11 12 13 14 18 40 66 73 90 90 100 100 100 100 100 100 100 100 100 100 100 100 100 100 100 100 100 100 100 100 100 100 100 100 100 99 98 97 96 96 96 98 95
80 87 85 90 88 88 84 77 67 58 40 23 16 16 19 19 20 42 81 87 94 100 100 100 100 100 93 92 98 99 98 100 100 100 100 100 100 100 100 100 100 99 99 99 99 99 100 100 100 100 98 90 80 72
74 73 76 88 92 87 85 78 76 80 59 39 25 20 21 28 32 25 25 64 94 100 98 100 100 100 100 100 100 100 100 100 100 100 100 100 100 100 99 98 98 98 98 99 100 100 100 99 93 86 79 72 64 58
59 58 54 68 84 81 84 83 73 72 69 55 43 40 34 34 42 38 31 28 58 87 99 100 100 100 100 100 100 100 100 100 100 100 100 100 98 94 91 90 92 95 98 98 98 95 90 85 79 72 66 59 53 47

GFSWCAN_500_rhum_279.txt.gz
RH
9 13 23 28 20 15 14 12 12 14 14 11 14 13 16 18 20 21 20 17 14 14 14 18 21 17 19 75 100 92 80 96 100 100 95 96 95 88 49 41 41 37 33 29 26 27 24 27 26 26 25 23 22 25
15 31 43 38 40 25 24 19 15 16 18 19 25 26 33 32 27 19 18 18 16 14 13 13 15 18 16 20 68 100 96 89 100 100 97 97 97 94 84 47 39 40 36 36 36 33 36 35 34 32 26 26 25 25
22 36 48 50 52 54 32 30 19 16 18 19 24 40 57 81 82 51 27 20 16 16 14 12 12 13 17 16 20 61 100 100 99 100 100 94 92 98 96 84 50 43 40 40 37 38 40 39 38 37 32 29 26 24
34 36 49 52 47 61 61 47 29 18 17 19 22 53 91 94 100 100 88 67 29 19 16 16 12 12 13 14 15 21 71 100 100 100 100 100 90 86 95 100 92 56 45 40 40 37 40 45 47 44 39 31 27 26
36 36 40 41 36 49 75 73 63 39 23 23 28 49 83 100 100 100 100 100 100 62 23 24 19 12 12 12 13 14 26 83 100 100 100 99 100 99 84 90 83 80 57 40 37 48 47 51 49 44 40 39 35 31
37 46 38 38 47 61 76 90 92 77 51 39 51 61 73 100 100 100 100 100 100 100 63 47 54 34 13 11 12 12 14 29 88 100 100 98 91 100 100 78 72 77 80 70 52 55 50 49 47 42 44 42 39 39
78 72 67 67 74 90 100 100 100 100 88 68 79 78 89 92 100 100 97 100 100 96 85 73 70 55 32 16 11 11 14 14 27 98 100 99 100 82 84 76 69 64 76 78 73 60 55 48 49 50 46 44 40 37
78 74 66 55 49 46 80 100 100 100 100 96 86 95 100 97 98 97 100 100 100 100 99 100 79 55 54 36 23 15 13 17 17 31 64 98 100 89 67 54 68 62 55 70 78 74 62 57 45 44 46 44 43 40
100 76 67 62 70 69 45 63 100 100 100 100 96 97 89 79 78 86 100 98 94 100 99 87 68 48 62 48 33 22 18 14 16 17 24 54 96 90 45 56 54 66 60 51 74 87 85 71 54 43 38 36 33 32
86 86 80 100 100 100 100 98 86 100 100 100 100 83 52 69 86 100 100 100 100 68 71 42 41 38 64 52 45 40 25 15 12 10 16 30 26 32 63 58 62 69 75 62 49 68 91 95 79 53 41 33 28 26
92 82 85 100 100 100 100 100 100 100 100 100 93 68 66 85 87 100 100 96 42 35 29 27 35 48 76 56 53 51 35 38 15 10 12 12 14 14 26 52 58 66 69 70 61 46 63 92 99 82 54 45 36 29
47 79 85 90 100 93 100 98 100 100 100 100 86 92 100 99 100 100 94 62 51 55 36 35 59 96 90 78 83 51 52 77 42 68 42 10 12 13 15 23 49 71 69 65 67 58 44 52 80 100 94 65 49 43
87 94 100 100 100 91 92 92 100 100 100 100 100 100 89 100 89 73 46 30 32 34 69 79 71 100 93 64 86 64 61 77 99 96 100 10 8 9 12 15 32 68 72 58 61 71 65 49 47 62 92 100 85 56
77 98 100 100 100 91 100 100 100 100 100 100 88 53 52 54 40 27 22 29 35 38 46 72 100 45 83 74 60 57 68 55 100 89 73 19 9 8 10 12 15 46 67 64 64 68 74 76 70 56 53 75 96 97
95 92 96 100 95 98 100 100 98 99 92 56 29 25 20 16 17 26 44 50 40 46 43 68 100 100 99 74 46 35 44 33 38 57 55 19 15 8 8 10 12 22 55 84 81 72 70 81 79 70 53 56 64 79
70 100 90 96 100 85 97 100 92 95 66 36 29 27 28 25 33 36 44 52 71 93 97 100 89 94 81 61 37 28 22 21 72 100 96 80 26 8 7 7 10 17 38 60 90 75 74 71 63 69 65 49 48 54
100 86 89 92 90 96 96 83 92 99 47 24 27 33 43 44 39 42 55 74 87 96 100 93 85 87 85 59 37 20 19 77 100 100 100 100 45 14 12 7 12 14 26 36 65 87 69 60 57 57 49 54 58 60
95 96 100 100 100 100 100 100 85 61 30 27 31 36 38 42 64 97 100 100 100 100 96 81 84 72 52 48 34 22 44 98 100 100 100 100 83 74 82 53 28 26 21 23 30 59 68 57 49 52 53 52 61 68
99 100 100 100 100 93 81 76 62 42 43 61 93 100 100 100 100 100 100 100 93 89 81 76 78 48 46 40 33 40 96 99 100 100 100 100 100 100 90 61 45 31 24 24 27 30 46 51 51 58 64 67 68 71
68 66 80 93 100 99 85 82 67 59 65 78 73 48 40 42 64 85 90 99 100 100 83 48 46 58 49 50 85 79 99 100 100 100 100 100 100 88 93 86 84 66 45 33 30 37 51 52 49 48 50 59 71 71
67 92 91 70 52 59 62 69 84 97 100 98 100 94 90 98 100 100 100 89 55 30 28 40 42 55 91 94 67 94 100 86 100 100 96 65 65 70 67 48 55 72 71 69 60 38 24 26 43 48 51 60 64 66
78 82 71 66 72 83 93 91 91 97 100 100 100 100 100 100 100 100 100 100 95 86 80 85 94 100 100 100 90 97 100 98 80 48 55 53 76 91 86 69 56 54 50 46 45 54 55 45 39 41 44 51 59 64
96 100 100 99 98 99 97 100 100 100 100 100 100 100 100 100 100 93 53 42 60 72 90 98 100 100 100 100 99 79 94 70 79 83 82 90 84 77 72 62 47 35 28 28 27 26 32 46 51 52 52 56 56 59
68 99 100 95 85 92 98 100 100 74 96 80 80 100 96 99 94 55 44 76 85 92 100 100 100 100 100 100 100 100 88 68 70 75 66 49 42 46 37 31 31 32 25 23 23 26 33 30 28 31 38 43 48 61
100 93 100 94 77 71 89 100 100 64 42 90 86 76 50 50 74 78 100 100 100 100 100 100 100 99 88 73 74 84 97 96 88 82 65 55 52 45 34 25 19 26 30 31 30 25 25 57 81 67 60 71 82 83
96 83 84 66 57 60 57 37 52 70 86 67 68 69 70 32 39 64 98 100 100 99 97 86 69 70 58 51 52 48 34 30 32 32 35 36 36 36 43 44 40 45 58 74 74 73 98 100 100 100 100 100 100 100
68 75 77 72 54 50 46 23 19 20 21 38 59 82 81 89 87 95 99 93 88 85 62 52 56 63 52 52 58 52 46 51 49 44 50 48 39 39 46 43 42 82 90 74 100 100 100 97 100 100 100 100 100 100
47 56 60 67 62 48 36 18 11 11 13 17 23 33 41 75 85 81 94 100 96 84 69 68 72 64 69 70 76 67 57 70 62 54 55 57 62 68 90 84 67 47 100 100 99 90 100 100 100 100 100 100 100 100
54 42 41 51 49 44 39 17 8 7 8 8 7 7 12 25 35 50 67 79 94 96 97 98 100 100 99 100 100 86 64 68 68 56 64 74 91 96 100 100 100 100 100 100 100 100 100 100 100 100 100 100 100 100
54 54 46 34 39 41 36 23 9 9 12 21 14 11 10 10 24 48 55 58 60 58 54 53 57 60 64 67 71 80 89 96 100 100 100 100 100 98 95 94 98 100 98 98 100 100 100 100 100 100 100 100 100 100
50 55 64 48 46 57 52 42 40 24 18 28 19 21 28 32 16 14 29 78 83 86 92 93 94 96 96 98 99 100 100 100 100 100 97 99 100 100 100 100 99 99 100 100 100 99 99 100 100 100 98 97 98 100
56 76 83 72 60 49 55 54 58 55 50 45 40 32 36 41 36 22 20 20 42 97 100 100 100 100 100 100 100 100 100 100 100 100 100 100 100 100 100 100 100 100 100 100 100 100 96 94 94 95 95 95 94 93
57 96 100 100 95 64 57 60 70 78 60 50 46 40 46 42 34 25 20 22 28 23 28 78 99 99 98 99 100 100 100 100 100 100 100 100 100 100 100 100 99 97 95 92 88 85 83 86 91 95 97 99 100 100

GFSWCAN_500_rhum_282.txt.gz
RH
18 16 13 10 19 28 23 21 19 16 13 13 14 16 19 18 17 21 24 24 32 30 20 16 20 22 19 21 89 100 100 68 57 93 100 100 88 92 100 62 50 46 37 29 28 28 20 17 16 20 22 25 23 18
18 14 11 13 30 38 35 37 34 28 16 15 18 26 61 97 78 41 30 38 24 27 22 17 16 19 21 18 23 91 100 99 70 81 99 100 88 100 100 99 59 52 45 39 33 29 30 31 30 27 28 26 27 22
16 12 16 19 31 44 46 50 58 44 28 15 18 26 59 88 100 100 99 44 28 26 24 19 16 16 17 18 20 27 90 100 95 75 92 100 100 100 100 91 99 69 49 53 45 36 34 37 39 36 33 30 30 27
12 14 22 32 34 42 45 38 63 67 48 30 16 18 28 90 100 100 100 100 58 47 33 28 18 15 16 16 16 21 38 91 100 99 95 99 96 100 100 100 97 100 70 49 53 47 41 39 42 44 38 34 34 33
14 22 27 32 36 35 37 38 54 81 72 57 28 18 22 54 100 100 100 100 100 72 70 54 29 21 15 14 16 16 18 44 88 100 100 97 100 100 100 100 93 91 98 84 51 52 57 56 48 40 36 39 37 36
22 30 51 70 80 79 70 72 87 98 100 86 55 28 28 46 96 100 100 100 100 100 100 82 69 42 26 18 14 14 19 18 27 93 100 97 96 100 100 89 90 94 96 100 100 86 59 55 46 37 34 38 40 40
30 56 74 87 85 73 64 59 85 100 100 100 85 50 40 50 82 98 100 100 100 100 100 100 100 67 35 29 22 15 13 14 18 45 51 89 95 100 93 87 86 94 81 93 100 99 90 54 46 41 39 36 39 43
71 84 98 100 100 100 93 81 69 60 100 100 100 79 62 61 72 96 100 100 100 100 100 99 81 68 65 48 33 25 16 13 13 16 26 56 99 96 70 60 80 72 83 83 84 96 100 94 60 48 41 37 38 44
96 100 100 100 87 73 73 84 88 50 100 100 100 100 78 54 64 90 100 100 100 100 99 97 72 99 96 52 36 28 24 16 12 12 14 48 67 75 47 54 57 64 68 78 84 77 90 99 95 58 48 41 39 43
100 100 100 98 100 90 94 100 100 100 100 100 100 90 73 63 78 92 100 100 100 100 92 67 81 50 85 77 52 49 32 22 17 12 15 18 16 22 36 49 57 56 59 69 76 72 67 85 98 95 66 52 45 44
95 87 80 71 58 80 100 100 100 100 100 100 93 86 96 92 100 78 92 90 92 79 77 40 53 68 89 74 71 58 43 40 20 20 17 11 17 17 20 24 32 57 64 60 62 76 71 59 77 98 91 74 55 47
88 100 100 100 84 61 78 100 96 100 100 100 90 99 100 97 98 91 84 74 60 41 37 48 68 71 75 80 60 50 58 46 20 27 42 24 12 12 14 17 19 26 64 68 63 63 78 71 55 66 90 91 81 64
94 96 89 88 100 100 99 98 90 100 96 100 99 100 100 97 94 86 69 45 26 36 55 92 100 100 92 62 58 36 25 23 30 26 30 10 12 10 16 15 15 16 19 36 70 66 63 71 71 53 55 70 96 98
93 80 99 97 100 100 100 100 80 100 100 100 100 67 86 82 74 65 57 36 25 31 45 85 100 100 100 100 85 62 53 40 29 16 15 24 12 9 8 14 15 15 15 16 28 66 64 64 71 71 52 48 70 94
96 74 86 100 98 98 100 91 94 100 94 99 72 47 40 48 61 59 40 36 33 34 48 75 78 88 88 84 74 56 56 48 26 12 50 81 65 26 11 8 11 14 15 15 15 34 63 72 74 74 66 46 44 54
90 100 97 78 97 98 69 91 93 86 74 89 52 40 42 41 51 39 35 28 31 41 77 80 78 77 67 50 28 29 50 52 43 38 48 100 100 63 23 10 7 8 12 14 14 16 47 78 73 76 89 72 60 51
99 61 84 83 71 59 100 99 66 61 46 31 36 37 19 19 29 33 32 44 56 56 68 87 91 98 94 43 27 28 56 62 40 41 39 58 100 100 89 19 8 7 7 8 10 13 20 68 85 79 57 60 71 73
72 99 100 87 71 77 98 87 44 32 29 29 22 20 27 35 46 56 65 74 83 90 96 100 100 91 68 58 55 47 49 50 50 47 36 52 100 100 76 30 16 9 7 8 9 11 14 28 63 63 66 69 71 75
67 83 100 98 96 96 66 44 42 44 42 28 26 31 46 66 70 70 68 76 95 100 100 100 96 64 74 68 51 56 46 50 46 58 100 100 100 99 83 66 46 18 16 16 13 10 11 13 21 45 63 64 64 62
80 77 80 81 74 67 62 64 66 65 67 86 99 100 100 100 100 100 100 100 100 96 94 82 76 81 68 65 56 51 57 67 95 100 100 100 100 100 100 100 100 99 63 22 14 10 10 13 19 30 56 73 71 76
28 29 36 47 61 68 73 88 89 85 86 96 100 100 100 100 100 100 100 100 100 98 77 40 54 62 60 73 63 49 72 100 100 100 100 100 100 100 99 100 100 93 90 80 50 30 29 23 21 23 25 48 62 63
60 57 58 74 77 82 89 100 100 100 95 88 93 97 100 100 100 100 98 84 100 91 47 47 50 46 56 56 51 75 94 100 100 100 98 91 100 100 99 95 99 100 100 84 63 69 76 81 76 64 56 58 60 58
88 85 69 58 58 60 76 89 100 100 100 100 100 100 100 100 99 86 52 43 53 36 38 58 86 85 88 97 89 84 100 100 100 98 98 100 100 99 94 90 90 80 77 70 64 63 66 62 52 43 42 44 50 53
87 100 99 91 90 91 100 100 100 100 94 100 99 100 100 60 41 28 37 80 96 100 100 100 100 93 98 100 100 91 98 100 97 99 100 100 100 92 80 63 52 48 44 40 33 26 26 31 45 58 57 52 47 44
87 93 87 83 87 98 100 92 93 86 47 44 54 92 97 87 89 100 100 100 100 100 100 100 94 83 91 100 100 100 100 96 92 99 89 68 52 42 37 31 26 24 25 25 25 24 23 24 24 25 28 35 43 52
69 83 94 67 59 44 32 29 47 69 59 32 35 40 49 64 66 74 73 96 100 98 82 68 58 80 90 90 95 97 99 97 93 92 88 78 62 54 40 37 33 25 19 18 21 23 30 26 42 67 72 60 62 60
60 71 85 86 58 52 40 33 23 15 39 50 40 28 26 37 43 42 48 65 64 81 87 71 66 66 65 52 45 45 44 44 44 46 47 46 45 43 45 42 34 29 25 19 33 63 72 86 100 100 100 100 100 100
39 56 70 75 75 60 38 26 14 10 11 38 79 61 48 37 47 53 59 61 62 72 84 59 68 69 73 78 77 73 67 60 53 51 42 31 32 35 34 34 46 47 58 81 62 90 100 100 92 100 100 100 100 100
27 38 54 61 71 65 49 33 10 8 7 7 10 15 20 49 75 70 74 56 35 56 84 85 90 94 96 94 94 76 54 54 49 39 42 52 59 68 67 67 64 65 100 100 100 92 76 94 100 87 100 100 100 100
38 35 37 47 47 45 50 41 16 8 9 9 9 8 7 7 10 22 35 44 54 66 68 66 57 46 45 45 47 49 60 69 71 82 91 96 100 100 100 100 100 100 100 100 100 100 100 96 99 99 100 100 100 100
39 56 41 44 50 54 51 50 29 13 23 22 19 17 14 13 9 9 18 60 76 75 71 68 70 80 82 83 88 89 81 88 94 97 97 95 100 99 92 91 98 100 96 94 95 96 95 96 98 96 92 92 93 96
36 42 62 64 83 69 66 77 62 35 22 25 28 26 24 17 16 12 13 12 19 64 87 88 78 85 89 96 100 100 99 99 100 100 97 87 82 87 84 87 94 99 100 100 99 96 93 94 94 93 94 94 95 96
28 24 39 76 100 100 76 64 76 78 65 48 43 36 28 25 25 17 19 21 21 18 16 60 95 100 98 97 98 97 100 100 100 100 100 100 98 96 96 97 99 100 100 99 95 90 87 86 85 85 86 91 98 100

GFSWCAN_500_rhum_285.txt.gz
RH
27 20 17 16 16 14 11 16 25 28 38 28 16 11 11 13 15 14 20 22 27 31 37 31 25 20 24 22 21 82 97 76 62 46 40 53 56 69 75 79 86 99 58 38 31 28 29 21 16 14 14 13 18 20
29 21 18 17 15 12 14 29 40 36 50 47 26 14 14 28 55 47 56 51 46 28 34 37 31 24 20 22 20 37 90 100 98 88 46 53 83 79 90 94 100 100 88 49 40 30 26 26 24 16 16 19 21 20
35 26 19 16 12 15 23 32 44 41 43 55 40 20 16 36 100 100 100 95 100 65 35 34 32 28 21 22 23 24 36 99 100 91 75 81 87 87 86 90 100 96 100 85 54 42 40 36 32 25 16 16 19 21
42 33 17 13 14 21 31 34 37 44 36 49 54 33 16 21 74 100 100 100 100 89 56 56 32 27 23 21 21 24 29 34 99 100 100 82 96 100 96 100 100 100 100 95 78 56 51 44 36 38 28 25 22 23
43 25 15 16 20 23 26 32 38 37 37 48 68 53 25 17 47 99 100 100 100 93 100 100 72 32 25 20 22 23 26 26 55 100 93 97 84 100 100 100 99 93 88 93 95 85 57 58 54 44 39 35 34 32
32 18 15 20 30 59 79 96 97 91 87 95 88 75 44 24 21 99 100 100 100 100 100 100 100 75 40 26 20 19 20 24 28 42 93 90 96 87 86 100 92 100 100 99 100 100 95 66 58 45 36 33 34 35
24 22 24 36 54 83 100 100 100 80 70 77 100 96 77 38 23 69 100 100 100 100 100 100 100 100 65 44 29 20 17 18 20 30 32 86 86 92 94 92 91 94 99 100 91 100 100 82 57 50 40 34 29 32
50 61 86 100 99 98 100 100 100 100 100 82 100 100 94 64 38 57 86 100 100 100 100 100 99 100 86 58 42 33 25 17 16 18 20 28 84 94 72 65 81 94 98 98 79 86 89 100 99 61 50 43 35 35
100 100 100 100 100 100 100 100 83 67 56 78 100 100 93 82 48 66 92 100 100 100 99 93 99 100 100 82 92 59 34 25 19 15 17 46 46 40 39 59 66 86 99 93 81 84 85 95 100 100 75 44 40 39
82 100 100 100 100 100 100 100 100 93 100 100 100 88 70 90 91 84 91 100 100 100 77 94 97 100 98 86 99 100 87 40 23 21 17 14 14 19 25 30 49 69 80 87 85 80 84 83 88 98 96 81 44 43
62 63 66 66 81 95 95 88 89 100 100 100 100 89 100 100 96 91 85 80 96 89 72 95 93 100 95 99 100 100 100 92 44 30 22 15 12 12 14 20 31 47 59 61 65 73 81 82 84 88 97 94 86 52
94 96 100 100 100 100 69 64 71 98 92 100 100 99 100 100 98 78 69 73 79 82 93 79 79 77 100 91 87 97 94 62 30 33 23 15 14 13 12 12 18 27 30 47 62 64 66 71 72 82 88 92 97 94
96 100 96 91 88 99 99 69 70 97 100 99 100 100 100 100 100 86 69 71 65 66 89 84 99 95 78 89 82 67 68 26 36 24 18 12 16 15 15 12 11 16 18 21 41 53 63 63 65 66 86 89 89 93
99 70 79 84 96 93 100 82 61 90 100 100 96 77 83 89 66 82 85 80 100 99 48 84 100 98 100 100 65 63 56 47 25 19 14 21 24 26 25 14 13 11 16 17 19 35 34 56 63 64 72 84 76 74
83 67 77 95 100 100 100 100 63 67 100 100 91 90 79 68 69 93 100 81 92 45 70 95 94 93 98 88 73 62 64 30 18 36 84 100 100 98 44 29 19 13 11 16 18 17 20 29 58 70 76 85 78 67
98 100 92 100 82 93 99 100 100 76 100 100 85 67 79 93 90 97 100 100 69 54 59 77 87 83 88 96 83 65 61 36 80 92 26 88 87 98 100 94 54 15 11 11 19 20 17 16 27 65 81 68 60 70
78 72 66 71 79 93 86 85 86 59 90 94 63 60 79 99 100 100 99 94 56 61 71 84 88 95 94 79 61 73 59 68 99 34 30 36 41 30 42 31 32 20 10 8 10 18 20 17 15 24 64 62 62 66
55 78 76 84 66 51 62 56 52 40 32 27 28 37 49 66 65 36 34 39 43 53 77 84 87 94 88 58 65 99 95 66 54 43 37 30 21 17 26 59 92 34 10 8 7 8 13 14 14 14 35 62 68 70
48 40 37 62 86 99 100 96 75 61 54 49 45 36 25 33 40 55 72 80 84 87 88 93 91 54 72 100 99 78 89 76 63 46 48 45 24 17 38 100 98 52 15 10 9 9 8 9 10 12 14 32 54 58
23 28 42 40 34 36 40 39 37 40 42 41 34 40 55 57 77 88 91 88 98 99 91 66 80 100 100 100 100 77 71 64 58 64 74 52 47 32 100 89 60 54 48 24 16 11 10 8 8 9 11 13 27 53
31 31 30 32 38 48 49 47 50 56 65 70 71 71 75 83 80 82 84 94 90 83 81 88 100 99 75 75 66 66 62 52 93 100 100 100 100 100 99 98 100 100 83 41 22 14 11 9 8 8 11 13 15 55
70 55 55 72 87 97 100 100 100 100 100 100 100 100 100 100 100 100 100 98 91 87 92 100 99 64 34 33 34 24 54 96 100 100 100 100 100 100 100 100 100 100 100 100 95 59 41 29 22 17 21 28 36 44
85 84 80 83 90 99 100 100 100 100 100 100 100 100 100 98 92 87 82 83 88 84 68 54 35 30 41 87 98 97 100 100 100 100 100 100 100 100 100 100 99 100 99 95 94 93 85 87 77 67 43 33 36 43
71 74 85 93 100 100 100 100 100 100 100 98 94 100 93 82 85 87 96 98 97 91 95 99 100 100 100 100 100 100 100 100 100 100 100 100 100 100 100 100 100 100 95 93 88 79 82 83 85 87 87 74 45 36
52 67 72 79 68 96 90 99 98 77 68 68 78 92 100 100 100 100 100 96 94 79 78 98 100 100 100 100 99 99 94 100 98 96 98 100 98 90 83 58 46 38 37 34 34 36 30 26 29 39 60 68 68 79
36 45 59 75 63 44 30 28 53 61 40 46 51 53 73 91 99 94 90 91 94 98 100 100 87 83 92 99 100 100 100 95 97 100 93 86 93 88 60 46 41 39 34 24 19 22 24 20 20 20 20 24 37 47
27 33 41 57 61 66 49 39 23 19 51 48 37 41 42 71 47 82 74 63 71 63 69 53 66 86 93 100 100 100 100 99 98 94 92 91 90 84 74 66 53 42 35 36 29 24 22 23 28 39 80 72 76 74
25 25 32 41 53 58 63 48 31 16 12 38 69 53 49 56 57 48 52 52 63 84 96 94 58 62 72 70 68 63 60 61 53 51 49 42 40 35 25 27 37 38 41 39 32 25 45 39 68 100 97 100 100 100
25 26 23 29 41 58 63 60 43 12 9 10 20 57 63 52 42 45 57 63 56 49 49 56 90 100 97 92 94 85 79 55 46 43 30 26 25 23 26 25 34 34 33 46 62 54 72 73 100 100 98 81 94 100
42 37 34 27 29 39 60 66 52 20 8 7 7 6 6 6 7 17 37 52 57 65 75 75 79 84 85 67 44 33 36 37 41 58 72 77 79 71 77 78 73 74 60 48 88 85 82 100 100 94 74 80 95 99
72 54 37 38 30 36 40 50 50 29 10 9 9 9 9 7 7 6 6 7 10 31 43 43 39 38 43 50 61 63 76 92 99 91 82 82 91 96 97 99 100 100 100 95 98 100 100 100 100 97 98 98 91 92
46 52 43 32 30 33 40 40 39 46 17 17 18 16 15 14 10 7 7 8 9 19 57 62 70 76 81 87 94 99 90 76 68 68 81 88 83 91 95 100 100 100 100 100 100 100 98 99 100 100 100 95 85 77
40 39 46 46 36 34 36 42 47 42 42 22 29 27 23 19 20 16 12 10 10 13 15 64 77 77 72 74 75 76 80 81 83 87 92 93 92 91 89 88 93 100 100 100 100 100 99 95 92 90 86 81 79 80